Location: Albany
(35.0000°S, 118.0000°E)
Time: 05:08:40
(UTC-04:00)

Vanguard 3 - Visible Passes

Search period start: 18 June 2018 00:00
Search period end: 28 June 2018 00:00
Orbit: 508 x 3264 km, 33.3° (Epoch: 17 June)

Date Brightness Start Highest point End Pass type
(mag) Time Alt. Az. Time Alt. Az. Time Alt. Az.
18 Jun 8.2 06:20:51 10° W 06:32:49 79° N 06:37:20 24° ENE visible
18 Jun 9.4 08:37:32 10° W 08:41:55 27° WNW 08:41:55 27° WNW visible
19 Jun 8.0 07:20:59 10° W 07:31:03 60° NNW 07:32:27 51° NNE visible
20 Jun 8.5 06:03:51 10° W 06:16:52 77° N 06:23:03 15° ENE visible
20 Jun 9.1 08:21:05 10° W 08:27:38 32° NW 08:27:38 32° NW visible
21 Jun 8.5 07:04:09 10° W 07:15:07 57° NNW 07:18:16 33° NE visible
21 Jun 10.3 09:22:27 10° WNW 09:22:52 11° WNW 09:22:52 11° WNW visible
22 Jun 8.8 05:46:46 10° W 06:00:50 75° NNW 06:08:26 10° ENE visible
22 Jun 9.0 08:04:31 10° W 08:12:40 31° NW 08:13:34 30° NNW visible
23 Jun 8.9 06:47:13 10° W 06:59:04 53° NNW 07:04:18 19° NE visible
23 Jun 10.2 09:06:45 10° WNW 09:08:55 12° NW 09:08:55 12° NW visible
24 Jun 9.1 05:29:37 10° W 05:44:41 72° NNW 05:52:56 10° ENE visible
24 Jun 9.4 07:47:53 10° W 07:56:31 29° NW 07:59:43 21° N visible
25 Jun 9.3 06:30:12 10° W 06:42:54 50° NNW 06:50:06 10° NE visible
25 Jun 10.2 08:51:17 10° WNW 08:53:17 11° NW 08:55:05 10° NW visible
26 Jun 9.4 05:12:25 10° W 05:28:24 69° NNW 05:37:20 10° ENE visible
26 Jun 9.9 07:31:11 10° W 07:40:16 27° NW 07:46:10 10° NNE visible
27 Jun 9.7 06:13:06 10° W 06:26:35 47° NW 06:34:24 10° NE visible
